2024/02/12 00:00:00,40.1,-0.0
2024/02/12 00:10:00,41.3, 0.2
2024/02/12 00:20:00,42.6, 0.7
2024/02/12 00:30:00,43.2, 0.4
2024/02/12 00:40:00,43.1, 0.5
2024/02/12 00:50:00,43.2, 0.4
2024/02/12 01:00:00,43.5, 0.5
2024/02/12 01:10:00,44.4, 0.4
2024/02/12 01:20:00,45.3, 0.7
2024/02/12 01:30:00,45.6, 0.3
2024/02/12 01:40:00,45.5, 0.4
2024/02/12 01:50:00,46.0, 0.6
2024/02/12 02:00:00,46.3, 0.3
2024/02/12 02:10:00,46.5, 0.6
2024/02/12 02:20:00,46.9, 0.6
2024/02/12 02:30:00,47.4, 0.4
2024/02/12 02:40:00,47.4, 0.6
2024/02/12 02:50:00,47.2, 0.4
2024/02/12 03:00:00,47.0, 0.1
2024/02/12 03:10:00,47.0,-0.0
2024/02/12 03:20:00,46.9, 0.4
2024/02/12 03:30:00,46.8,-0.1
2024/02/12 03:40:00,46.9, 0.5
2024/02/12 03:50:00,46.7, 0.4
2024/02/12 04:00:00,46.5, 0.4
2024/02/12 04:10:00,46.3, 0.4
2024/02/12 04:20:00,46.3, 0.1
2024/02/12 04:30:00,46.3, 0.4
2024/02/12 04:40:00,46.1, 0.2
2024/02/12 04:50:00,46.0, 0.2
2024/02/12 05:00:00,45.9, 0.4
2024/02/12 05:10:00,45.8, 0.4
2024/02/12 05:20:00,45.8, 0.3
2024/02/12 05:30:00,45.7, 0.4
2024/02/12 05:40:00,45.6, 0.4
2024/02/12 05:50:00,45.6, 0.4
2024/02/12 06:00:00,45.6, 0.4
2024/02/12 06:10:00,45.5, 0.4
2024/02/12 06:20:00,45.4, 0.4
2024/02/12 06:30:00,45.4, 0.4
2024/02/12 06:40:00,45.3, 0.6
2024/02/12 06:50:00,45.2, 1.0
2024/02/12 07:00:00,45.1, 0.2
2024/02/12 07:10:00,45.0, 0.4
2024/02/12 07:20:00,45.0, 0.4
2024/02/12 07:30:00,44.9, 0.6
2024/02/12 07:40:00,44.8, 0.5
2024/02/12 07:50:00,44.7, 0.5
2024/02/12 08:00:00,44.6, 0.6
2024/02/12 08:10:00,44.6, 0.5
2024/02/12 08:20:00,44.5, 1.4
2024/02/12 08:30:00,44.9, 0.7
2024/02/12 08:40:00,45.5, 0.5
2024/02/12 08:50:00,45.4, 0.8
2024/02/12 09:00:00,45.4, 0.7
2024/02/12 09:10:00,45.4, 0.7
2024/02/12 09:20:00,45.3, 0.9
2024/02/12 09:30:00,45.1, 1.3
2024/02/12 09:40:00,44.9, 1.9
2024/02/12 09:50:00,44.9, 2.2
2024/02/12 10:00:00,44.8, 4.0
2024/02/12 10:10:00,44.0, 5.2
2024/02/12 10:20:00,43.6, 5.8
2024/02/12 10:30:00,43.9, 8.1
2024/02/12 10:40:00,43.4, 5.4
2024/02/12 10:50:00,43.0, 5.2
2024/02/12 11:00:00,43.0, 6.3
2024/02/12 11:10:00,42.9, 8.7
2024/02/12 11:20:00,42.8, 9.6
2024/02/12 11:30:00,---, 9.8
2024/02/12 11:40:00, 0.0,11.4
2024/02/12 11:50:00, 0.0, 9.2
2024/02/12 12:00:00,40.7, 6.6
2024/02/12 12:10:00,40.9, 8.9
2024/02/12 12:20:00,40.2, 8.4
2024/02/12 12:30:00,40.1,10.6
2024/02/12 12:40:00,39.5, 9.3
2024/02/12 12:50:00,39.2, 9.4
2024/02/12 13:00:00,38.9, 9.1
2024/02/12 13:10:00,39.1,12.9
2024/02/12 13:20:00,38.7,14.8
2024/02/12 13:30:00,37.6, 9.2
2024/02/12 13:40:00,37.5,14.1
2024/02/12 13:50:00,36.9, 9.3
2024/02/12 14:00:00,36.2, 7.9
2024/02/12 14:10:00,36.1, 7.5
2024/02/12 14:20:00,35.9, 8.5
2024/02/12 14:30:00,35.5, 6.3
2024/02/12 14:40:00,35.8,11.7
2024/02/12 14:50:00,35.4, 9.2
2024/02/12 15:00:00,35.6,14.0
2024/02/12 15:10:00,34.9,17.2
2024/02/12 15:20:00,34.7,10.3
2024/02/12 15:30:00,34.7, 8.1
2024/02/12 15:40:00,34.7,11.0
2024/02/12 15:50:00,34.4,15.5
2024/02/12 16:00:00,34.3,19.0
2024/02/12 16:10:00,33.9,21.9
2024/02/12 16:20:00,33.7,21.9
2024/02/12 16:30:00,33.3,23.0
2024/02/12 16:40:00,32.8,21.2
2024/02/12 16:50:00,32.6,15.0
2024/02/12 17:00:00,32.6, 7.6
2024/02/12 17:10:00,32.4, 5.0
2024/02/12 17:20:00,32.2, 3.3
2024/02/12 17:30:00,32.0, 2.2
2024/02/12 17:40:00,31.7, 1.4
2024/02/12 17:50:00,31.4, 0.8
2024/02/12 18:00:00,31.3, 0.4
2024/02/12 18:10:00,31.0,-0.0
2024/02/12 18:20:00,30.6,-0.1
2024/02/12 18:30:00,29.7,-0.6
2024/02/12 18:40:00, 0.0,-1.0
2024/02/12 18:50:00, 0.0,-1.0
2024/02/12 19:00:00, 0.0,-1.2
2024/02/12 19:10:00, 0.0,-1.0
2024/02/12 19:20:00, 0.0,-1.4
2024/02/12 19:30:00,30.6,-1.3
2024/02/12 19:40:00,31.1,-1.2
2024/02/12 19:50:00,31.3,-1.3
2024/02/12 20:00:00,31.1,-1.3
2024/02/12 20:10:00,30.8,-0.6
2024/02/12 20:20:00,30.7,-0.0
2024/02/12 20:30:00,30.5, 0.1
2024/02/12 20:40:00,30.5,-0.0
2024/02/12 20:50:00,30.4,-0.9
2024/02/12 21:00:00,30.5,-1.5
2024/02/12 21:10:00,30.6,-1.6
2024/02/12 21:20:00,30.4,-2.0
2024/02/12 21:30:00,30.8,-2.1
2024/02/12 21:40:00,30.5,-2.1
2024/02/12 21:50:00,30.7,-2.0
2024/02/12 22:00:00,30.8,-2.0
2024/02/12 22:10:00,30.8,-1.9
2024/02/12 22:20:00,30.8,-2.3
2024/02/12 22:30:00,30.8,-2.2
2024/02/12 22:40:00,31.0,-2.5
2024/02/12 22:50:00,30.9,-2.3
2024/02/12 23:00:00,30.5,-2.2
2024/02/12 23:10:00,29.8,-2.4
2024/02/12 23:20:00,29.2,-2.1
2024/02/12 23:30:00,29.1,-2.5
2024/02/12 23:40:00, 0.0,-2.4
2024/02/12 23:50:00,---,-2.2
